Weather History for Madisonville, KY

Change the Weather History Date:

Sunday, February 3, 2013

  Actual Average (KOWB) Record (KOWB)
Temperature  
Mean Temperature 30 °F -  
Max Temperature 36 °F 42 °F 66 °F (1962)
Min Temperature 24 °F 24 °F -7 °F (1985)
Degree Days  
Heating Degree Days 35    
Moisture  
Dew Point 28 °F    
Average Humidity 88    
Maximum Humidity 100    
Minimum Humidity 72    
Precipitation  
Precipitation 0.08 in - - ()
Sea Level Pressure  
Sea Level Pressure 30.11 in    
Wind  
Wind Speed 5 mph (NW)    
Max Wind Speed 16 mph    
Max Gust Speed 26 mph    
Visibility 8 miles    
Events Fog , Snow    
Averages and records for this station are not official NWS values.
T = Trace of Precipitation, MM = Missing Value Source: NWS Daily Summary

Daily Weather History Graph

Daily Weather History Graph

Search for Another Location

Airport:

Trip Planner

Search our weather history database for the weather conditions in past years. The results will help you decide how hot, cold, wet, or windy it might be!

Date:

Astronomy

Feb. 03, 2013 Rise Set
Actual Time 6:50 AM CST 5:16 PM CST
Civil Twilight 6:23 AM CST 5:43 PM CST
Nautical Twilight 5:52 AM CST 6:15 PM CST
Astronomical Twilight 5:21 AM CST 6:45 PM CST
Moon 12:17 AM CST (2/3) 10:54 AM CST (2/3)
Length of Visible Light 11h 20m
Length of Day
10h 25m
Waning Gibbous, 48% of the Moon is Illuminated
Feb 3
Waning Gibbous
Feb 10
New
Feb 17
First Quarter
Feb 25
Full
Mar 4
Last Quarter

Hourly Weather History & Observations

Time (CST) Temp. Windchill Dew Point Humidity Pressure Visibility Wind Dir Wind Speed Gust Speed Precip Events Conditions
12:15 AM 32.9 °F 29.8 °F 27.9 °F 82% 30.09 in 10.0 mi NNW 3.5 mph - N/A   Mostly Cloudy
12:35 AM 32.4 °F - 28.4 °F 85% 30.08 in 10.0 mi Calm Calm - N/A   Overcast
12:55 AM 33.4 °F - 27.9 °F 80% 30.07 in 10.0 mi Calm Calm - N/A   Overcast
1:15 AM 32.2 °F 26.7 °F 28.0 °F 85% 30.08 in 10.0 mi NNE 5.8 mph - N/A   Overcast
1:35 AM 32.2 °F 28.9 °F 28.8 °F 87% 30.08 in 10.0 mi NNE 3.5 mph - N/A   Overcast
1:55 AM 32.0 °F - 28.9 °F 88% 30.06 in 10.0 mi Calm Calm - N/A   Overcast
2:15 AM 32.0 °F - 29.3 °F 90% 30.05 in 10.0 mi Calm Calm - N/A   Overcast
2:35 AM 32.0 °F - 29.7 °F 91% 30.04 in 1.8 mi Calm Calm - N/A Snow Light Snow
2:55 AM 31.6 °F - 30.9 °F 97% 30.04 in 0.5 mi Calm Calm - N/A Snow Heavy Snow
3:15 AM 31.5 °F - 31.3 °F 99% 30.04 in 0.5 mi Calm Calm - N/A Snow Heavy Snow
3:35 AM 31.6 °F - 31.6 °F 100% 30.01 in 2.5 mi Calm Calm - 0.03 in Snow Light Snow
3:55 AM 32.0 °F - 32.0 °F 100% 30.02 in 4.0 mi Calm Calm - 0.08 in Snow Light Snow
4:15 AM 31.8 °F 27.3 °F 31.8 °F 100% 30.01 in 3.0 mi ENE 4.6 mph - N/A   Overcast
4:35 AM 32.0 °F - 32.0 °F 100% 30.00 in 3.0 mi Calm Calm - N/A   Overcast
4:55 AM 31.8 °F - 31.8 °F 100% 30.00 in 3.0 mi Calm Calm - N/A   Overcast
5:15 AM 31.3 °F - 31.3 °F 100% 30.01 in 3.0 mi Calm Calm - N/A   Overcast
5:35 AM 31.1 °F - 31.1 °F 100% 30.00 in 3.0 mi Calm Calm - N/A   Overcast
5:55 AM 30.9 °F - 30.9 °F 100% 30.01 in 2.5 mi Calm Calm - N/A   Overcast
6:15 AM 30.4 °F - 30.4 °F 100% 30.01 in 0.8 mi Calm Calm - N/A   Overcast
6:35 AM 27.9 °F - 27.9 °F 100% 30.01 in 0.2 mi Calm Calm - N/A Fog Light Freezing Fog
6:55 AM 28.0 °F 22.8 °F 28.0 °F 100% 30.02 in 0.2 mi West 4.6 mph - N/A Fog Light Freezing Fog
7:15 AM 28.2 °F 22.0 °F 28.2 °F 100% 30.02 in 0.2 mi WSW 5.8 mph - N/A Fog Light Freezing Fog
7:35 AM 30.4 °F 24.5 °F 30.4 °F 100% 30.03 in 4.0 mi West 5.8 mph - N/A   Mostly Cloudy
7:55 AM 32.4 °F 26.0 °F 32.4 °F 100% 30.05 in 7.0 mi West 6.9 mph - N/A   Overcast
8:15 AM 32.5 °F 25.5 °F 32.5 °F 100% 30.06 in 10.0 mi WNW 8.1 mph - N/A   Overcast
8:35 AM 35.1 °F 25.2 °F 32.9 °F 92% 30.06 in 10.0 mi NW 16.1 mph 21.9 mph N/A   Mostly Cloudy
8:55 AM 35.6 °F 26.2 °F 32.2 °F 87% 30.05 in 10.0 mi NW 15.0 mph 18.4 mph N/A   Scattered Clouds
9:15 AM 36.0 °F 27.1 °F 32.0 °F 86% 30.06 in 10.0 mi NW 13.8 mph 18.4 mph N/A   Clear
9:35 AM 36.0 °F 28.0 °F 32.0 °F 86% 30.08 in 10.0 mi WNW 11.5 mph 17.3 mph N/A   Mostly Cloudy
9:55 AM 35.8 °F 28.3 °F 30.9 °F 82% 30.09 in 10.0 mi NW 10.4 mph 23.0 mph N/A   Overcast
10:15 AM 35.6 °F 28.0 °F 30.7 °F 82% 30.11 in 10.0 mi NW 10.4 mph - N/A   Overcast
10:35 AM 35.1 °F 26.9 °F 31.1 °F 85% 30.12 in 10.0 mi WNW 11.5 mph - N/A   Overcast
10:55 AM 35.1 °F 26.4 °F 30.9 °F 85% 30.13 in 10.0 mi WNW 12.7 mph 18.4 mph N/A   Overcast
11:15 AM 35.6 °F 25.9 °F 30.6 °F 82% 30.13 in 10.0 mi WNW 16.1 mph 19.6 mph N/A   Overcast
11:35 AM 35.6 °F 28.0 °F 30.9 °F 83% 30.14 in 10.0 mi WNW 10.4 mph - N/A   Overcast
11:55 AM 36.0 °F 28.0 °F 31.3 °F 83% 30.13 in 10.0 mi WNW 11.5 mph - N/A   Overcast
12:15 PM 36.5 °F 27.4 °F 31.1 °F 81% 30.13 in 10.0 mi WNW 15.0 mph 19.6 mph N/A   Overcast
12:35 PM 36.1 °F 27.7 °F 30.7 °F 81% 30.14 in 10.0 mi WNW 12.7 mph 20.7 mph N/A   Overcast
12:55 PM 36.3 °F 28.9 °F 30.7 °F 80% 30.13 in 10.0 mi WNW 10.4 mph - N/A   Overcast
1:15 PM 36.3 °F 28.4 °F 30.4 °F 79% 30.13 in 10.0 mi WNW 11.5 mph 18.4 mph N/A   Overcast
1:35 PM 36.9 °F 28.7 °F 30.7 °F 79% 30.13 in 10.0 mi WNW 12.7 mph 18.4 mph N/A   Overcast
1:55 PM 36.5 °F 27.8 °F 29.5 °F 76% 30.14 in 10.0 mi NW 13.8 mph 24.2 mph N/A   Overcast
2:15 PM 36.1 °F 27.3 °F 29.5 °F 77% 30.15 in 10.0 mi NW 13.8 mph 21.9 mph N/A   Overcast
2:35 PM 36.5 °F 28.2 °F 28.9 °F 74% 30.15 in 10.0 mi NW 12.7 mph 25.3 mph N/A   Overcast
2:55 PM 36.0 °F 26.7 °F 29.1 °F 76% 30.16 in 10.0 mi NW 15.0 mph 26.5 mph N/A   Overcast
3:15 PM 36.3 °F 28.4 °F 29.3 °F 76% 30.16 in 10.0 mi NNW 11.5 mph - N/A   Overcast
3:35 PM 35.6 °F 27.5 °F 28.4 °F 75% 30.16 in 10.0 mi NNW 11.5 mph 20.7 mph N/A   Overcast
3:55 PM 36.0 °F 28.5 °F 28.0 °F 73% 30.17 in 10.0 mi NW 10.4 mph 20.7 mph N/A   Overcast
4:15 PM 36.3 °F 27.1 °F 29.1 °F 75% 30.17 in 10.0 mi NNW 15.0 mph 19.6 mph N/A   Overcast
4:35 PM 34.7 °F 25.9 °F 27.5 °F 75% 30.17 in 10.0 mi NW 12.7 mph 18.4 mph N/A   Mostly Cloudy
4:55 PM 34.0 °F 27.2 °F 25.9 °F 72% 30.18 in 10.0 mi NNW 8.1 mph - N/A   Scattered Clouds
5:15 PM 32.9 °F 23.7 °F 25.9 °F 75% 30.18 in 10.0 mi North 12.7 mph - N/A   Clear
5:55 PM 31.3 °F 23.9 °F 25.3 °F 79% 30.20 in 10.0 mi North 8.1 mph - N/A   Clear
6:15 PM 30.9 °F 24.3 °F 25.0 °F 79% 30.20 in 10.0 mi North 6.9 mph - N/A   Clear
6:35 PM 29.8 °F 23.9 °F 24.8 °F 81% 30.20 in 10.0 mi North 5.8 mph - N/A   Clear
6:55 PM 28.9 °F 25.2 °F 23.9 °F 81% 30.19 in 10.0 mi North 3.5 mph - N/A   Clear
7:15 PM 28.4 °F - 24.1 °F 84% 30.19 in 10.0 mi Calm Calm - N/A   Clear
7:35 PM 28.0 °F - 24.1 °F 85% 30.19 in 10.0 mi Calm Calm - N/A   Clear
7:55 PM 27.5 °F - 24.3 °F 88% 30.19 in 10.0 mi Calm Calm - N/A   Clear
8:15 PM 27.9 °F 24.0 °F 24.4 °F 87% 30.17 in 10.0 mi SSE 3.5 mph - N/A   Clear
8:35 PM 26.6 °F - 24.1 °F 90% 30.17 in 10.0 mi Calm Calm - N/A   Clear
8:55 PM 25.3 °F - 22.8 °F 90% 30.19 in 10.0 mi Calm Calm - N/A   Clear
9:15 PM 26.4 °F - 23.4 °F 88% 30.18 in 10.0 mi Calm Calm - N/A   Clear
9:35 PM 26.4 °F - 23.7 °F 90% 30.17 in 10.0 mi Calm Calm - N/A   Clear
9:55 PM 26.4 °F - 24.1 °F 91% 30.17 in 10.0 mi Calm Calm - N/A   Clear
10:15 PM 25.7 °F 20.1 °F 24.6 °F 96% 30.16 in 10.0 mi South 4.6 mph - N/A   Clear
10:35 PM 26.1 °F - 24.4 °F 94% 30.16 in 10.0 mi Calm Calm - N/A   Clear
10:55 PM 24.3 °F - 23.4 °F 96% 30.14 in 10.0 mi Calm Calm - N/A   Clear
11:15 PM 25.2 °F 20.9 °F 24.6 °F 98% 30.14 in 10.0 mi SSE 3.5 mph - N/A   Clear
11:35 PM 25.5 °F - 24.6 °F 96% 30.15 in 10.0 mi Calm Calm - N/A   Clear
11:55 PM 24.4 °F 18.6 °F 23.7 °F 97% 30.12 in 10.0 mi SE 4.6 mph - N/A   Clear